Погода в Шереметьевке

Россия / Республика Татарстан     55°23′10″N   51°33′18″E
темп.,
°C
ветер,
м/с
пор.,
м/с
влажн.,
%
обл.,
%
осадки,
мм/ч
давл.,
гПа
погр.,
м
28 февраля, вс
вс2800:00−11с599585 0.1 1001265
03:00−12с499592 0.4 1003335
06:00−13ссв489499 0.3 1004335
09:00−14ссв589396 0.3 1006371
12:00−12с4691100 0.1 1007441
15:00−11с4791100 0.1 1009599
18:00−14ссз3595100 0.1 1011106
21:00−17ссз349699 0.1 101459
1 марта, пн
пн100:00−20ссз339831 0.0 101528
03:00−22ссз239621 0.0 101727
06:00−23ссз239721 0.0 101922
09:00−20ссз249524 0.0 1021197
12:00−16сз238871 0.0 1021320
15:00−14зсз348983 0.0 1021402
18:00−19зюз349748 0.0 101934
21:00−21ююз359725 0.0 101983
2 марта, вт
вт200:00−17ююз5109590 0.0 1016234
03:00−14ююз7129595 0.1 1012312
06:00−12ююз71394100 0.6 1007429
09:00−9ююз81494100 1.3 1004504
12:00−5ююз81493100 0.6 1001577
15:000юз61099100 1.8 999535
18:000з5996100 1.8 998464
21:00−1з5119399 2.1 998402
3 марта, ср
ср300:00−3з5109691 0.2 998308
03:00−5з359793 0.3 1000111
06:00−6з379697 0.2 1000155
09:00−5зсз479598 0.4 1002401
12:00−4зсз579197 0.1 1003533
15:00−4зсз688798 0.1 1004794
18:00−9сз349184 0.0 100555
21:00−12з239566 0.1 100723
4 марта, чт
чт400:00−11з349678 0.0 100666
03:00−12зюз359787 0.1 100691
06:00−12юз499794 0.0 1006147
09:00−9юз599496 0.1 1005358
12:00−6юз71292100 0.2 1002556
15:00−4ююз91494100 0.9 999874
18:00−2юз111795100 2.2 9951061
21:00−1зюз101792100 3.4 9931076